Regional Weather Roundup
Issued by NWS

Home | Current Version | Previous Version | Graphics & Text | Print | Product List | Glossary On
Versions: 1 2 3 4 5 6 7 8 9 10 11 12 13 14 15 16 17 18 19 20 21 22 23 24 25 26 27 28 29 30 31 32 33 34 35 36 37 38 39 40 41 42 43 44 45 46 47 48 49 50
000
ASUS43 KDMX 290008
RWRIA

WEATHER ROUNDUP FOR IOWA
NATIONAL WEATHER SERVICE DES MOINES IA
700 PM CDT SAT MAY 28 2016

NOTE: "FAIR" INDICATES FEW OR NO CLOUDS BELOW 12,000 FEET WITH NO
SIGNIFICANT WEATHER AND/OR OBSTRUCTIONS TO VISIBILITY.

* - THESE STATIONS ARE NOT NWS STATIONS...THUS NOT UNDER NWS
QUALITY CONTROL.  THEY ALSO DO NOT REPORT WEATHER SUCH
AS PRECIPITATION OR FOG.

IAZ001>003-012>014-020>022-031>034-043>046-290100-
   NORTHWEST IOWA

CITY           SKY/WX    TMP DP  RH WIND       PRES   REMARKS
CARROLL *      PTSUNNY   68  59  73 SW21G28   29.79R
CHEROKEE *     PTSUNNY   65  60  84 W9G18     29.78R
DENISON *      CLOUDY    66  61  82 W20G28    29.78R
LE MARS *      PTSUNNY   66  61  82 W16G23    29.81R
ORANGE CITY *  PTSUNNY   64  63  94 NW9       29.80R
SHELDON *      HVY RAIN  61  61 100 NE10      29.80R VSB 1/2
SIOUX CITY     CLOUDY    66  59  78 NW14      29.80R
6HR MIN TEMP:  65; 6HR MAX TEMP:  74; 6HR PCP:  0.01;

SPENCER        LGT RAIN  63  59  87 NE12      29.78R
6HR MIN TEMP:  63; 6HR MAX TEMP:  73; 6HR PCP:  0.01;

STORM LAKE *   PTSUNNY   70  57  64 W12G17    29.78R
$$

IAZ055>058-069>071-079>083-090>094-290100-
   SOUTHWEST IOWA

CITY           SKY/WX    TMP DP  RH WIND       PRES   REMARKS
ATLANTIC *     PTSUNNY   70  55  60 W16G24    29.84R
AUDUBON *      PTSUNNY   70  59  68 SW12G24   29.83R
CLARINDA *       N/A     72  61  68 MISG      29.88R
COUNCIL BLFS * SUNNY     72  55  56 W14G22    29.86R
CRESTON *      MOSUNNY   70  59  68 SW20      29.86R
HARLAN  *      CLOUDY    70  55  60 W17G24    29.86R
LAMONI         SUNNY     71  59  65 SW16      29.87R
6HR MIN TEMP:  63; 6HR MAX TEMP:  73; 6HR PCP:  0.02;

RED OAK *      SUNNY     73  55  53 W16       29.86R
SHENANDOAH *   SUNNY     75  59  57 W12       29.87R
$$

IAZ047>049-059>061-072>074-084-290100-
   CENTRAL IOWA

CITY           SKY/WX    TMP DP  RH WIND       PRES   REMARKS
AMES           MOSUNNY   70  58  65 SW21G28   29.80R
6HR MIN TEMP:  66; 6HR MAX TEMP:  73; 6HR PCP:  0.16;

ANKENY *       MOSUNNY   73  59  60 SW15G21   29.81R
BOONE *        PTSUNNY   70  57  64 SW18G28   29.79R
CHARITON *     MOSUNNY   72  63  73 SW12G20   29.85S
DES MOINES     MOSUNNY   74  58  57 SW14      29.81R
6HR MIN TEMP:  65; 6HR MAX TEMP:  75; 6HR PCP:  0.42;

GRINNELL*      PTSUNNY   72  61  68 S14G20    29.84R
KNOXVILLE *    SUNNY     73  61  64 SW14      29.83R
MARSHALLTOWN   PTSUNNY   70  62  76 S15       29.80R
6HR MIN TEMP:  65; 6HR MAX TEMP:  73; 6HR PCP:  0.18;

NEWTON *       MOSUNNY   72  63  73 SW16G23   29.82R
PELLA *        SUNNY     73  59  60 SW12G18   29.85R
PERRY *        CLOUDY    68  61  77 SW15      29.81R
$$

IAZ004>006-015-016-023>025-035-036-290100-
   NORTH CENTRAL IOWA

CITY           SKY/WX    TMP DP  RH WIND       PRES   REMARKS
ALGONA *       CLOUDY    64  63  94 NE14      29.78R
CLARION *      MOSUNNY   72  59  64 SW17      29.77S
ESTHERVILLE    LGT RAIN  62  61  96 NE9       29.78S
6HR MIN TEMP:  61; 6HR MAX TEMP:  72; 6HR PCP:  1.11;

FORT DODGE *   PTSUNNY   70  55  60 S10       29.78R
MASON CITY     PTSUNNY   65  62  90 SE5       29.79S
6HR MIN TEMP:  62; 6HR MAX TEMP:  74; 6HR PCP:  0.12;

FOREST CITY *  CLOUDY    63  63 100 E5        29.78F
WEBSTER CITY * CLOUDY    70  59  68 SW23G35   29.77R
IOWA FALLS *   PTSUNNY   70  61  73 SW18      29.80S
$$

IAZ007>011-017>019-026>030-037>042-050>054-066-290100-
   NORTHEAST IOWA

CITY           SKY/WX    TMP DP  RH WIND       PRES   REMARKS
CEDAR RAPIDS   CLOUDY    72  64  76 SW14      29.82R
6HR MIN TEMP:  64; 6HR MAX TEMP:  79; 6HR PCP:  0.39;

CHARLES CITY * CLOUDY    68  64  88 W3        29.80R
CLINTON *      CLOUDY    74  69  85 S12       29.84R
DECORAH *      PTSUNNY   70  64  83 VRB7G17   29.78R
DUBUQUE        MOSUNNY   74  62  66 SW16G24   29.82R
6HR MIN TEMP:  65; 6HR MAX TEMP:  79; 6HR PCP:  0.23;

MONTICELLO *   PTSUNNY   73  63  68 SW14      29.82R
OELWEIN *      PTSUNNY   72  66  83 SW15      29.81R
WATERLOO       CLOUDY    71  61  70 SW14      29.79R
6HR MIN TEMP:  67; 6HR MAX TEMP:  76; 6HR PCP:  0.08;

$$

IAZ064-065-067-068-078-290100-
   EAST CENTRAL IOWA

CITY           SKY/WX    TMP DP  RH WIND       PRES   REMARKS
DAVENPORT      CLOUDY    78  61  55 SW16G23   29.84R HX  80
6HR MIN TEMP:  69; 6HR MAX TEMP:  82;

IOWA CITY      CLOUDY    76  60  57 SW17G28   29.84R
6HR MIN TEMP:  73; 6HR MAX TEMP:  80;

MT. PLEASANT * MOSUNNY   77  62  59 SW14      29.86R
MUSCATINE *    MOSUNNY   79  61  53 SW13G20   29.84R HX  80
QUAD CITIES    PTSUNNY   80  62  54 SW14G23   29.83R HX  81
6HR MIN TEMP:  69; 6HR MAX TEMP:  84; 6HR PCP:  0.12;

$$

IAZ062-063-075>077-085>089-095>099-290100-
   SOUTHEAST IOWA

CITY           SKY/WX    TMP DP  RH WIND       PRES   REMARKS
BURLINGTON     CLOUDY    78  62  57 SW17      29.86R HX  80
6HR MIN TEMP:  76; 6HR MAX TEMP:  81;

FAIRFIELD *      N/A    N/A N/A N/A MISG        N/A
FORT MADISON * PTSUNNY   77  63  61 SW10      29.88R
KEOKUK *       PTSUNNY   77  63  61 SW15G23   29.87R
OSKALOOSA *      N/A     73  59  60 SW17G23   29.85S
OTTUMWA        SUNNY     73  59  61 SW14      29.84S
6HR MIN TEMP:  73; 6HR MAX TEMP:  77;

WASHINGTON *   CLOUDY    73 -36   1 SW17G24   29.87R
$$

ABBREVIATIONS USED IN REMARKS
   TC - TEMPERATURES IN CELSIUS
  WCI - WIND CHILL INDEX
   HX - HEAT INDEX
  VSB - VISIBILITY
$$





USA.gov is the U.S. government's official web portal to all federal, state and local government web resources and services.